Location: Antioch Baptist Church
(32.6696°N, 85.7327°W)
Time: 03:35:41
(UTC+00:00)

Cosmos 1092 Rocket - Visible Passes

Search period start: 23 October 2020 00:00
Search period end: 02 November 2020 00:00
Orbit: 954 x 995 km, 82.9° (Epoch: 22 October)

Date Brightness Start Highest point End Pass type
(mag) Time Alt. Az. Time Alt. Az. Time Alt. Az.
23 Oct 6.8 09:32:55 10° ESE 09:36:23 16° E 09:39:53 10° NE visible
23 Oct 4.0 11:15:04 10° SSW 11:21:05 58° W 11:27:11 10° N visible
24 Oct 5.8 09:55:53 10° SSE 10:01:10 31° E 10:06:29 10° NNE visible
25 Oct 4.5 10:20:04 10° S 10:26:05 61° E 10:32:10 10° NNE visible
26 Oct 6.9 09:04:09 10° ESE 09:06:38 13° E 09:09:06 10° ENE visible
26 Oct 3.9 10:45:04 10° SSW 10:51:10 71° W 10:57:22 10° N visible
26 Oct 7.3 23:34:39 10° WNW 23:36:35 11° W 23:38:31 10° W visible
27 Oct 6.0 09:26:25 10° SE 09:31:21 26° E 09:36:18 10° NNE visible
27 Oct 4.5 11:10:50 10° SW 11:16:25 36° WNW 11:22:05 10° NNW visible
28 Oct 4.8 09:50:20 10° SSE 09:56:13 50° E 10:02:10 10° NNE visible
29 Oct 3.9 10:15:07 10° S 10:21:16 85° W 10:27:30 10° N visible
30 Oct 6.2 08:57:05 10° SE 09:01:33 21° E 09:06:02 10° NE visible
30 Oct 4.2 10:40:39 10° SSW 10:46:28 44° W 10:52:22 10° N visible
31 Oct 5.1 09:20:41 10° SSE 09:26:23 41° E 09:32:09 10° NNE visible
31 Oct 5.0 11:07:05 10° SW 11:11:50 23° WNW 11:16:39 10° NNW visible
01 Nov 4.0 09:45:14 10° S 09:51:22 81° E 09:57:36 10° N visible
01 Nov 5.6 11:35:32 10° W 11:37:24 11° WNW 11:39:16 10° NW visible
